Regional Weather Roundup
Issued by NWS Newport/Morehead, NC

Current Version | Previous Version | Graphics & Text | Print | Product List | Glossary Off
Versions: 1 2 3 4 5 6 7 8 9 10 11 12 13 14 15 16 17 18 19 20 21 22 23 24 25 26 27 28 29 30 31 32 33 34 35 36 37 38 39 40 41 42 43 44 45 46 47 48 49 50

000
ASUS42 KMHX 240925
RWRMHX
WEATHER ROUNDUP FOR EASTERN NORTH CAROLINA
NATIONAL WEATHER SERVICE NEWPORT/MOREHEAD CITY NC
500 AM EDT WED AUG 24 2016

NOTE: "FAIR" INDICATES FEW OR NO CLOUDS BELOW 12,000 FEET
WITH NO SIGNIFICANT WEATHER AND/OR OBSTRUCTIONS TO VISIBILITY

NCZ015>017-031-032-045>047-102-103-241000-
NORTH COAST

CITY           SKY/WX    TMP DP  RH WIND       PRES   REMARKS
EDENTON        CLEAR    N/A N/A N/A CALM      30.27S
ELIZABETH CITY CLEAR     63  60  90 NW5       30.26S
KITTY HAWK     SUNNY     72  66  81 NE3       30.24S
MANTEO         CLEAR     71  64  78 NE5       30.25S

$$

NCZ045>047-081-094-103-104-241000-
CENTRAL COAST

CITY           SKY/WX    TMP DP  RH WIND       PRES   REMARKS
FRISCO         CLEAR     74  65  73 VRB5      30.23S

$$

NCZ095-097-098-100-101-241000-
SOUTHERN COAST

CITY           SKY/WX    TMP DP  RH WIND       PRES   REMARKS
BEAUFORT       CLEAR     68  63  84 CALM      30.24R
CEDAR ISLAND   NOT AVBL
JACKSONVILLE   CLEAR     67  62  84 CALM      30.23F
PINEY ISLAND   NOT AVBL
WILMINGTON     CLEAR     67  62  84 N6        30.23S


$$

NCZ011>013-027>030-043-044-078>080-089-090>093-098-241000-
COASTAL PLAIN

CITY           SKY/WX    TMP DP  RH WIND       PRES   REMARKS
AHOSKIE        CLEAR     59  58  97 CALM      30.28S
CLINTON        CLEAR     67  65  96 CALM      30.26S
ELIZABETHTOWN  CLEAR     67  65  95 CALM      30.25S
GOLDSBORO      CLEAR     65  65 100 N1        30.25S
GREENVILLE     CLOUDY    61  61 100 CALM      30.28R
HAVELOCK       PTCLDY    71  62  73 N7        30.25S
KENANSVILLE    NOT AVBL
KINSTON        PTCLDY    62  62  97 CALM      30.27S
NEW BERN       PTCLDY    66  62  87 CALM      30.26S
RICHLANDS      CLEAR     63  62  97 CALM      30.25S
ROCKY MOUNT    PTCLDY    63  63 100 CALM      30.28S
WASHINGTON     PTCLDY    62  60  94 CALM      30.27R
WHITEVILLE     CLEAR     68  65  88 CALM      30.24S

$$

AMZ130-135-150-152-154-156-158-170-250-252-270-ANZ085-086-088-633-658-670-241000-
MARINE OBSERVATIONS

STATION/POSITION TIME  TEMP    WIND        PRES    WAVE   SWELL
                       AIR SEA DIR/SP/G            HT/PER HT/PER
                 (UTC) (F)     (DEG/KT/KT) (MB)    (FT/S) (FT/S)
CHESAPEAKE LIGHT NOT AVBL
64 E VA BEACH    0850   76 81   40/ 12/ 14 1024.0    2/ 7   2/ 7
DUCK             0900   76 78   40/ 12/ 13 1023.9
2 E DUCK         0811      78                N/A     3/ 5
OREGON INLET     0900   75 78   40/  8/ 11 1023.9
13E OREGON INLT  0900      78                N/A     3/ 5   2/ 5
HATTERAS CG      0900   75 80   40/  6/ 12 1023.2
DIAMOND BUOY     0850   78 84   30/ 12/ 16 1023.1    3/ 8   2/ 8
CAPE LOOKOUT     0900   74     360/  7/  8 1023.3
BEAUFORT LAB     0900   73 81   10/  4/  6 1023.2
30 SE NEW RVR IN 0908   79 84   40/ 14/ 19 1023.2
30 SE NEW RVR IN 0825      84                N/A     3/ 5
27 SE WRIGHTSVLE 0908   81 84   30/ 14/ 17 1023.2
5 SE WRIGHTSVLE  0908   80 83   50/ 16/ 19 1024.2
225 S CAPE HAT   0850   82 85   50/ 16/ 17 1020.4    4/ 5   2/ 7
41 SE CHARLESTON 0850   82 84   50/ 16/ 19 1021.3    4/ 4   2/11

$$




USA.gov is the U.S. government's official web portal to all federal, state and local government web resources and services.